Regional Weather Roundup
Issued by NWS

Home | Current Version | Previous Version | Text Only | Print | Product List | Glossary On
Versions: 1 2 3 4 5 6 7 8 9 10 11 12 13 14 15 16 17 18 19 20 21 22 23 24 25 26 27 28 29 30 31 32 33 34 35 36 37 38 39 40 41 42 43 44 45 46 47 48 49 50
000
ASUS43 KLOT 150408
RWRIL

ILLINOIS REGIONAL WEATHER ROUNDUP
NATIONAL WEATHER SERVICE CHICAGO/ROMEOVILLE IL
1000 PM CST THU DEC 14 2017

NOTE: "FAIR" INDICATES FEW OR NO CLOUDS BELOW 12,000 FEET WITH NO
SIGNIFICANT WEATHER AND/OR OBSTRUCTIONS TO VISIBILITY.

* THESE STATIONS ARE NOT UNDER NWS QUALITY CONTROL. THEY ALSO MAY NOT
  REPORT WEATHER SUCH AS PRECIPITATION OR FOG.

ILZ001-002-007-009-015-016-024-150500-
NORTHWEST ILLINOIS

CITY           SKY/WX    TMP DP  RH WIND       PRES   REMARKS
MOLINE         CLOUDY    26  17  68 SW7       30.06F WCI  18
STERLING*        N/A     24  16  71 SW6       30.06  WCI  17
SAVANNA*       CLOUDY    25  17  69 SW7       30.05F WCI  17
$$

ILZ003-004-008-010-011-017-018-150500-
NORTH CENTRAL ILLINOIS

CITY           SKY/WX    TMP DP  RH WIND       PRES   REMARKS
ROCKFORD       CLOUDY    20  11  68 SW5       30.05F WCI  13
FREEPORT*      CLOUDY    23  17  76 SW9       30.04F WCI  13
ROCHELLE*      CLOUDY    19  13  77 CALM      30.05F
DE KALB*       CLOUDY    19  10  69 W6        30.04F WCI  11
PERU*          CLOUDY    19  11  71 SW6       30.08S WCI  10
$$

ILZ005-006-012>014-019>023-150500-
NORTHEAST ILLINOIS

CITY           SKY/WX    TMP DP  RH WIND       PRES   REMARKS
CHICAGO-OHARE  MOCLDY    20  11  68 SW3       30.05F
CHICAGO-MIDWAY PTCLDY    21  11  65 SW5       30.07S WCI  15
AURORA         CLEAR     13   9  84 CALM      30.06F
LANSING*       CLEAR     15  11  83 CALM      30.08S
JOLIET*        CLEAR     15  13  90 CALM      30.08F
WAUKEGAN       CLOUDY    20  13  74 CALM      30.04S
DUPAGE AIRPORT PTCLDY    17  11  77 SW5       30.04F WCI  10
KANKAKEE*      CLEAR     19  10  68 W5        30.09S WCI  12
WHEELING       CLOUDY    23  12  62 VRB5      30.07F WCI  17
MORRIS*        CLEAR     15   8  75 W3        30.07S
ROMEOVILLE*    CLEAR     17  11  77 SW5       30.07S WCI  10
NORTHERLY ISL    N/A     24  11  57 SW6         N/A  WCI  17
$$

LMZ740>746-150500-
SOUTHERN LAKE MICHIGAN

STATION/POSITION SKY/WX   TEMP    WIND        PRES    VSBY  WAVE
                          AIR SEA DIR/SP/G                  HT/PER
                          (F)     (DEG/KT/KT) (MB)    (MI)  (FT/S)
HARRISON CRIB              25     260/  7/  8   N/A
BURNHAM HARBOR             24     220/  5/  7   N/A
CALUMET HARBOR             23     210/  2/  3 1017.6F
BURNS HARBOR               26     250/  7/ 13 1018.6F
MICHIGAN CITY              24     200/ 11/ 12   N/A
$$

ILZ025>027-034>036-040-047-049-050-058-095>099-150500-
WEST-CENTRAL ILLINOIS

CITY           SKY/WX    TMP DP  RH WIND       PRES   REMARKS
QUINCY         CLOUDY    28  19  69 W5        30.11S WCI  23
GALESBURG*     CLOUDY    26  18  73 SW3       30.08F
MACOMB*        CLOUDY    28  19  69 NW6       30.12S WCI  21
JACKSONVILLE*  CLOUDY    27  16  64 W5        30.11F WCI  22
PITTSFIELD*    CLOUDY    28  19  70 SW3       30.12S
$$

ILZ028>032-037-038-041>044-048-051>054-059>061-150500-
CENTRAL ILLINOIS

CITY           SKY/WX    TMP DP  RH WIND       PRES   REMARKS
PONTIAC        CLEAR     14  10  87 S3        30.09F
BLOOMINGTON    CLOUDY    20  14  77 CALM      30.08F
DECATUR        MOCLDY    25  16  68 SW3       30.10F
PEORIA         CLOUDY    25  15  66 CALM      30.09F
LACON*         CLOUDY    21  17  83 CALM      30.08F
LINCOLN*       CLOUDY    26  18  73 CALM      30.09F
SPRINGFIELD    PTCLDY    24  16  71 W7        30.11F WCI  16
TAYLORVILLE    CLOUDY    26  18  70 SW3       30.11S
$$

ILZ033-039-045-046-055>057-062-063-150500-
EAST-CENTRAL ILLINOIS

CITY           SKY/WX    TMP DP  RH WIND       PRES   REMARKS
CHAMPAIGN      CLOUDY    22  15  75 W3        30.08F
DANVILLE*      CLOUDY    23  17  77 NW3       30.05F
RANTOUL*       PTCLDY    22  16  78 CALM      30.08F
MATTOON        CLOUDY    27  18  69 NW5       30.09S WCI  22
PARIS*         CLOUDY    28  21  75 W6        30.10S WCI  22
$$

ILZ079-100>102-150500-
SOUTHWEST ILLINOIS

CITY           SKY/WX    TMP DP  RH WIND       PRES   REMARKS
ALTON          CLOUDY    28  21  74 NW7       30.13S WCI  21
BELLEVILLE     CLOUDY    31  19  63 NW7       30.13R WCI  24
CAHOKIA*       CLOUDY    31  19  61 NW8       30.14S WCI  23
SPARTA*        CLOUDY    30  21  69 CALM      30.16R
$$

ILZ064>066-069>071-074>076-080>082-084>086-088>090-092>094-150500-
SOUTH-CENTRAL ILLINOIS

CITY           SKY/WX    TMP DP  RH WIND       PRES   REMARKS
CARBONDALE     CLOUDY    31  21  66 W3        30.15R
CAIRO*         CLOUDY    32  24  74 CALM      30.15S
EFFINGHAM*     CLOUDY    30  21  68 W8        30.13S WCI  22
MARION         CLOUDY    32  21  63 CALM      30.15R
MT. VERNON     CLOUDY    30  21  69 VRB5      30.13S WCI  25
CENTRALIA*     CLOUDY    31  22  68 NW6       30.11F WCI  25
SALEM*         CLOUDY    31  20  64 N5        30.12S WCI  26
METROPOLIS*    CLOUDY    32  22  65 W3        30.15R
$$

ILZ067-068-072-073-078-083-087-091-150500-
SOUTHEAST ILLINOIS

CITY           SKY/WX    TMP DP  RH WIND       PRES   REMARKS
LAWRENCEVILLE  CLOUDY    31  21  66 W3        30.12S
FLORA*         CLOUDY    32  22  66 NW6       30.12S WCI  26
FAIRFIELD*     CLOUDY    31  22  68 CALM      30.12R
HARRISBURG*    CLOUDY    32  22  67 NW5       30.14R WCI  27
ROBINSON*      CLOUDY    29  21  73 CALM      30.12S
CARMI*         CLOUDY    31  25  78 W3        30.12S
$$

ABBREVIATIONS USED IN REMARKS
   TC - TEMPERATURE IN CELSIUS
  WCI - WIND CHILL INDEX
   HX - HEAT INDEX
  VSB - VISIBILITY
$$





USA.gov is the U.S. government's official web portal to all federal, state and local government web resources and services.